Regional Weather Roundup
Issued by NWS

Home | Current Version | Previous Version | Graphics & Text | Print | Product List | Glossary On
Versions: 1 2 3 4 5 6 7 8 9 10 11 12 13 14 15 16 17 18 19 20 21 22 23 24 25 26 27 28 29 30 31 32 33 34 35 36 37 38 39 40 41 42 43 44 45 46 47 48 49 50
000
ASUS43 KTOP 200508
RWRKS

WEATHER ROUNDUP FOR KANSAS
NATIONAL WEATHER SERVICE GOODLAND KS
1100 PM CST SUN NOV 19 2017

NOTE:  "FAIR" INDICATES FEW OR NO CLOUDS BELOW 12,000 FEET WITH NO
SIGNIFICANT WEATHER AND/OR OBSTRUCTIONS TO VISIBILITY.

KSZ001>006-013>018-027>032-041>047-200600-
NORTHWEST KANSAS

CITY           SKY/WX    TMP DP  RH WIND       PRES   REMARKS
GOODLAND       CLOUDY    40  15  36 SW9       29.91F
HAYS           CLOUDY    37  22  54 SW9       29.96F
HILL CITY      CLEAR     40  26  57 W7        29.92F
RUSSELL        CLOUDY    43  22  43 S14       29.94F
$$

KSZ061>065-074>080-084>089-200600-
SOUTHWEST KANSAS

CITY           SKY/WX    TMP DP  RH WIND       PRES   REMARKS
DODGE CITY     CLEAR     41  18  39 S13       30.00F
ELKHART        CLOUDY    39  20  46 SW16      29.98F WCI  30
GARDEN CITY    CLEAR     39  19  44 SW8       29.96F
GREAT BEND     CLOUDY    42  19  39 S13       29.98F
LIBERAL        CLEAR     41  18  39 SW15      30.00F
PRATT          CLEAR     40  18  41 S13       30.03S WCI  32
$$

KSZ066>073-081>083-090>101-200600-
SOUTHEAST KANSAS

CITY           SKY/WX    TMP DP  RH WIND       PRES   REMARKS
CHANUTE        CLEAR     44  29  55 S13       30.11F
COFFEYVILLE    CLEAR     41  30  65 S6        30.14F
HUTCHINSON     CLEAR     45  24  43 S10       30.03S
MEDICINE LODGE   N/A     41  23  48 S12       30.05F
NEWTON         CLOUDY    46  23  40 S18       30.04F
PARSONS        CLEAR     42  30  62 S8        30.14F
WICHITA INTL   CLEAR     41  26  55 S9        30.06S
WICHITA JABRA  CLEAR     47  24  40 S17G24    30.05F
WICHITA MCCONL CLEAR     43  23  46 SW12      30.06F
WINFIELD       CLEAR     46  26  45 S10       30.10F
$$

KSZ007>012-019>026-033>040-048>060-102>105-200600-
NORTHEAST KANSAS

CITY           SKY/WX    TMP DP  RH WIND       PRES   REMARKS
CONCORDIA      CLOUDY    43  23  45 SW16      29.93F
EMPORIA        CLOUDY    42  26  53 S14       30.04F
LAWRENCE       CLOUDY    45  29  53 S10       30.03F
MANHATTAN      CLOUDY    47  24  40 SW16      29.98F
MARYSVILLE     CLOUDY    45  27  49 S13G18    29.95F
OLATHE IND     CLOUDY    41  30  65 S12       30.05F
OLATHE EXE     CLOUDY    42  29  59 S12G21    30.05F
SALINA         CLOUDY    47  24  40 S14       29.98F
TOPEKA BILLARD CLOUDY    47  27  45 S13G21    30.01F
TOPEKA FORBES  CLOUDY    47  27  45 S15       30.01F
$$




USA.gov is the U.S. government's official web portal to all federal, state and local government web resources and services.